Location: Camp at the Woods
(43.2055°N, 93.0905°W)
Time: 00:14:31
(UTC+00:00)

Cosmos 2227 Rocket - Pass Details

Date: 28 May 2025
Orbit: 837 x 844 km, 71.0° (Epoch: 12 June)

Event Time Altitude Azimuth Distance (km) Brightness Sun altitude
Exits shadow 09:01:17 - 270° (W) 2,719 4.5 -14.2°
Reaches altitude 10° 09:02:25 10° 279° (W) 2,455 4.3 -14.1°
Maximum altitude 09:05:43 16° 315° (NW) 2,084 4.3 -13.7°
Drops below altitude 10° 09:09:03 10° 352° (N) 2,465 5.2 -13.3°
Sets 09:12:35 0° 14° (NNE) 3,405 6.5 -12.8°
